Olympia, WA
on Wednesday, November 7, 2012

Wednesday
Previous Day Next Day
Daily Summary
 ActualAverageRecord
Temperature
Mean Temperature °F 45°F  
Max Temperature 54°F 53°F 73°F (2002)
Min Temperature 35°F 38°F 23°F (2003)
Degree Days
Heating Degree Days 20 20  
Month to date heating degree days 90 134  
Since 1 July heating degree days 868 928  
Cooling Degree Days 0 0  
Month to date cooling degree days 0 0  
Year to date cooling degree days 82 106  
Moisture
Dew Point 39°F   
Average Humidity 80    
Maximum Humidity 100    
Minimum Humidity 59    
Precipitation
Precipitation 0.02 in 0.27 in 1.17 in (1995)
Month to date precipitation 1.26 1.75  
Year to date precipitation 41.96 35.66  
Wind
Wind Speed 5 mph   
Max Wind Speed 12 mph   
Max Gust Speed 15 mph   
Visibility 6 miles   
Events Fog , Rain   

Key: T is trace of precipitation, MM is missing value
Source: NWS Daily Summary
Time(PST)TemperatureDew PointHumidity Pressure Visibility Wind DirectionWind SpeedGust SpeedPrecipitationEvents Conditions
12:54 AM 48.0°F 46.0°F 93% 30.09 in 10.0 miles SW 5.8 mph - 0.02 in   Mostly Cloudy
1:54 AM 46.0°F 44.1°F 93% 30.10 in 10.0 miles SSW 8.1 mph - N/A   Scattered Clouds
2:54 AM 46.0°F 43.0°F 89% 30.11 in 10.0 miles SSW 8.1 mph - N/A   Clear
3:54 AM 45.0°F 42.1°F 90% 30.12 in 10.0 miles SSW 9.2 mph - N/A   Partly Cloudy
4:54 AM 44.1°F 42.1°F 93% 30.13 in 10.0 miles SSW 8.1 mph - N/A   Clear
5:54 AM 44.1°F 42.1°F 93% 30.14 in 10.0 miles SSW 8.1 mph - N/A   Clear
6:54 AM 43.0°F 41.0°F 93% 30.14 in 10.0 miles SW 9.2 mph - N/A   Clear
7:54 AM 43.0°F 41.0°F 93% 30.16 in 10.0 miles SSW 6.9 mph - N/A   Scattered Clouds
8:54 AM 46.0°F 43.0°F 89% 30.16 in 10.0 miles SSW 6.9 mph - N/A   Scattered Clouds
9:54 AM 48.0°F 43.0°F 83% 30.16 in 10.0 miles SSW 5.8 mph - N/A   Clear
10:01 AM 48.2°F 42.8°F 82% 30.15 in 10.0 miles SW 6.9 mph - N/A   Scattered Clouds
10:54 AM 50.0°F 42.1°F 74% 30.15 in 10.0 miles SSW 6.9 mph - N/A   Scattered Clouds
11:54 AM 53.1°F 41.0°F 64% 30.14 in 10.0 miles South 11.5 mph - N/A   Mostly Cloudy
12:54 PM 48.9°F 39.0°F 69% 30.13 in 5.0 miles WNW 6.9 mph - 0.00 in Rain Light Rain
1:54 PM 54.0°F 39.0°F 57% 30.11 in 8.0 miles West 5.8 mph - 0.00 in   Scattered Clouds
2:54 PM 52.0°F 37.9°F 59% 30.09 in 10.0 miles SW 3.5 mph - N/A   Scattered Clouds
3:54 PM 50.0°F 39.0°F 66% 30.09 in 10.0 miles WSW 5.8 mph - N/A   Scattered Clouds
4:54 PM 45.0°F 37.9°F 76% 30.07 in 10.0 miles SSE 5.8 mph - N/A   Partly Cloudy
5:54 PM 39.0°F 37.0°F 93% 30.06 in 10.0 miles SSW 4.6 mph - N/A   Scattered Clouds
6:54 PM 37.9°F 37.0°F 97% 30.04 in 10.0 miles Calm Calm - N/A   Mostly Cloudy
7:54 PM 41.0°F 39.0°F 93% 30.03 in 10.0 miles Calm Calm - N/A   Overcast
8:54 PM 39.9°F 37.9°F 93% 30.01 in 9.0 miles Calm Calm - N/A   Scattered Clouds
9:00 PM 37.4°F 37.4°F 100% 30.01 in 1.8 miles Calm Calm - N/A   Partly Cloudy
9:07 PM 39.2°F 37.4°F 93% 30.01 in 1.0 miles Calm Calm - N/A   Partly Cloudy
9:12 PM 39.2°F 37.4°F 93% 30.01 in 2.0 miles Calm Calm - N/A   Clear
9:16 PM 37.4°F 37.4°F 100% 30.00 in 1.2 miles Calm Calm - N/A   Clear
9:32 PM 37.4°F 37.4°F 100% 30.00 in 2.0 miles Calm Calm - N/A   Clear
9:39 PM 35.6°F 35.6°F 100% 30.00 in 1.0 miles Calm Calm - N/A   Clear
9:44 PM 35.6°F 35.6°F 100% 29.99 in 0.5 miles Calm Calm - N/A Fog Fog
9:52 PM 35.6°F 35.6°F 100% 29.99 in 0.2 miles Calm Calm - N/A Fog Fog
9:54 PM 35.1°F 35.1°F 100% 30.00 in 0.2 miles Calm Calm - N/A Fog Fog
10:12 PM 35.6°F 35.6°F 100% 29.98 in 0.2 miles Calm Calm - N/A Fog Fog
10:36 PM 37.4°F 35.6°F 93% 29.97 in 0.5 miles Calm Calm - N/A Fog Fog
10:42 PM 35.6°F 33.8°F 93% 29.97 in 1.0 miles Calm Calm - N/A   Overcast
10:54 PM 35.1°F 35.1°F 100% 29.97 in 0.5 miles Calm Calm - N/A Fog Fog
11:14 PM 35.6°F 35.6°F 100% 29.95 in 1.0 miles Calm Calm - N/A   Mostly Cloudy
11:41 PM 35.6°F 35.6°F 100% 29.95 in 0.8 miles Calm Calm - N/A   Overcast
11:54 PM 35.1°F 35.1°F 100% 29.95 in 0.5 miles Calm Calm - N/A Fog Fog
Moon Phase
Nov. 07 Nov. 13 Nov. 20 Nov. 28 Dec. 06
Sunrise:07:04 AM (PST) Moon Rise:No Moon Rise/
Sunset:04:46 PM (PST) Moon Set:01:21 PM (PST)11/7

Copyright © 2014 The Weather Underground, Inc.